{"data":{"norad_id":59185,"intl_designator":"2024-045H","name":"STARLINK-31394","alt_names":[],"object_type":"PAYLOAD","status":"ACTIVE","operator":null,"country":"US","launch_date":"2024-03-10","launch_site_code":"AFETR","launch_vehicle":null,"mission":null,"orbit_class":"UNKNOWN","rcs_meters":null,"size_class":null,"mass_kg":null,"dimensions":null,"purposes":["comms"],"wikipedia_slug":null,"has_3d_model":false,"image_url":null,"decayed_at":null,"tle_current":{"epoch":"2026-09-20T03:41:14.145216Z","epoch_age_seconds":188792,"freshness":"STALE","line1":"1 59185U 24045H   26263.15363594  .00000414  00000+0  24576-4 0  9994","line2":"2 59185  43.0030  63.8153 0001335 272.7891  87.2808 15.27579328143026","mean_motion":15.27579328,"eccentricity":0.0001335,"inclination_deg":43.003,"raan_deg":63.8153,"arg_perigee_deg":272.7891,"mean_anomaly_deg":87.2808,"bstar":2.4576e-5,"rev_number":14302,"period_min":94.266790182696,"perigee_km":482.13513963769,"apogee_km":483.96707686259,"semimajor_km":6861.1881082501,"source":"CELESTRAK","updated_at":"2026-09-21T09:00:34.062982Z"}}}